This is the latest recevied weather packets stored in our database for station/object WC0AA15WX. If no packets are shown the sender has not sent any weather packets the latest 10 day(s).
| Time | Temp. | Humidity | Pressure | Rain* | Wind** | Luminosity | Snow |
|---|---|---|---|---|---|---|---|
| 1777578012 | 18.89° C | 49% | 1022 hPa | 0 mm | - | - | - |
| 1777577976 | 18.89° C | 49% | 1022 hPa | 0 mm | - | - | - |
| 1777577376 | 18.89° C | 48% | 1022 hPa | 0 mm | - | - | - |
| 1777576776 | 18.89° C | 48% | 1022 hPa | 0 mm | - | - | - |
| 1777576486 | 18.89° C | 48% | 1022 hPa | 0 mm | - | - | - |
| 1777576176 | 18.89° C | 48% | 1022 hPa | 0 mm | - | - | - |
| 1777575700 | 18.33° C | 49% | 1022.4 hPa | 0 mm | - | - | - |
| 1777575576 | 18.33° C | 49% | 1022.4 hPa | 0 mm | - | - | - |
| 1777574976 | 18.33° C | 49% | 1022.4 hPa | 0 mm | - | - | - |
| 1777574376 | 18.33° C | 46% | 1022.4 hPa | 0 mm | - | - | - |
| 1777573776 | 18.89° C | 44% | 1022.7 hPa | 0 mm | - | - | - |
| 1777573176 | 19.44° C | 45% | 1022.7 hPa | 0 mm | - | - | - |
| 1777572576 | 18.89° C | 43% | 1022.8 hPa | 0 mm | - | - | - |
| 1777571976 | 18.89° C | 43% | 1023 hPa | 0 mm | - | - | - |
| 1777571376 | 20° C | 44% | 1023 hPa | 0 mm | - | - | - |
| 1777570776 | 19.44° C | 45% | 1023.4 hPa | 0 mm | - | - | - |
| 1777570176 | 18.33° C | 48% | 1023.4 hPa | 0 mm | - | - | - |
| 1777569575 | 18.89° C | 47% | 1023.4 hPa | 0 mm | - | - | - |
| 1777568976 | 17.78° C | 48% | 1023.4 hPa | 0 mm | - | - | - |
| 1777568375 | 17.78° C | 48% | 1023.7 hPa | 0 mm | - | - | - |
| 1777567775 | 17.22° C | 49% | 1023.7 hPa | 0 mm | - | - | - |
| 1777567175 | 17.22° C | 51% | 1024 hPa | 0 mm | - | - | - |
| 1777566575 | 17.22° C | 51% | 1024 hPa | 0 mm | - | - | - |
| 1777565975 | 17.22° C | 53% | 1024.4 hPa | 0 mm | - | - | - |
| 1777565375 | 16.11° C | 55% | 1024.4 hPa | 0 mm | - | - | - |
* Rain latest hour (hover to see other rain measurements)
** Current wind speed in m/s (hover to see current wind gust speed)